OpenBCM V1.08-5-g2f4a (Linux)

Packet Radio Mailbox

IZ3LSV

[San Dona' di P. JN]

 Login: GUEST





  
I0OJJ  > KEPS     14.07.25 01:29l 343 Lines 16342 Bytes #66 (0) @ AMSAT
BID : ORB25195.1
Read: GUEST
Subj: 2Line Orbital Elements 25195.AMSAT
Path: IZ3LSV<IK6IHL<IK7NXU<HB9ON<DK0WUE<ZL2BAU<VK2RZ<IR0AAB<I0OJJ
Sent: 250714/0025z @:I0OJJ.ITA.EU [Rome] obcm1.08-10-g596e
From: I0OJJ @ I0OJJ.ITA.EU (Gustavo)
To:   KEPS @ AMSAT
X-Info: This message was generated automatically


QST de W1STR

AMSAT Orbital Elements for Amateur Satellites in TLE Format
From Orbital Analysis Office
New England Sci-Tech STEM Education Center
Natick, MA July 14, 2025
To all radio amateurs


These element sets describe the orbits of various satellites 
in use by the amateur radio community. For details see:
www.amsat.org/keplerian-elements-formats/

A daily update of element sets is available at:
www.amsat.org/tle/daily-bulletin.txt
or without bulletin text:
www.amsat.org/tle/dailytle.txt


AO-07
1 07530U 74089B   25194.74468034 -.00000042  00000-0  30245-4 0  9995
2 07530 101.9935 199.3727 0012594  58.0458 116.0702 12.53690160318343
UO-11
1 14781U 84021B   25194.46041896  .00000953  00000-0  10585-3 0  9994
2 14781  97.7562 160.1640 0006776 215.7348 144.3417 14.89463553206687
AO-27
1 22825U 93061C   25194.62359336  .00000075  00000-0  45687-4 0  9992
2 22825  98.7351 256.3460 0008682  20.9955 339.1582 14.30808525658853
FO-29
1 24278U 96046B   25194.24438976 -.00000002  00000-0  37070-4 0  9996
2 24278  98.5714  83.7028 0348890 255.3444 100.8781 13.53250377427325
NOAA-15
1 25338U 98030A   25194.81850114  .00000155  00000-0  81412-4 0  9991
2 25338  98.5338 219.1234 0009027 257.4837 102.5334 14.26996001413289
GO-32
1 25397U 98043D   25194.69211199  .00000033  00000-0  34460-4 0  9996
2 25397  98.9721 174.5264 0002336 100.8056 259.3385 14.24321836403362
ISS
1 25544U 98067A   25194.82082520  .00010000  00000-0  17963-3 0  9998
2 25544  51.6341 175.0526 0002688   7.9305 352.1726 15.50527943519299
NO-44
1 26931U 01043C   25194.52588166  .00000064  00000-0  55025-4 0  9992
2 26931  67.0510  40.0713 0006250 276.9111  83.1280 14.31747798241962
SO-50
1 27607U 02058C   25194.57024498  .00000883  00000-0  12709-3 0  9998
2 27607  64.5528  95.6085 0060048 326.6403  33.0924 14.81706768214263
CO-55
1 27844U 03031E   25194.47685253  .00000216  00000-0  11306-3 0  9996
2 27844  98.6757 202.3126 0010927  89.3684 270.8747 14.24017456143469
CO-57
1 27848U 03031J   25194.44113036  .00000187  00000-0  10177-3 0  9994
2 27848  98.6785 202.2576 0010762 105.0136 255.2234 14.23349255143188
RS-22
1 27939U 03042A   25194.86723899  .00000690  00000-0  11724-3 0  9995
2 27939  98.3307   5.1525 0010152 260.2731 236.3240 14.72416216165871
CO-58
1 28895U 05043F   25194.39162399  .00001118  00000-0  19006-3 0  9997
2 28895  98.2540 339.1733 0014202 195.0227 165.0559 14.71100816 51912
CO-65
1 32785U 08021C   25194.85580525  .00003931  00000-0  28346-3 0  9997
2 32785  97.7878 166.2821 0011653  96.1753 264.0801 15.04692660934305
CO-66
1 32791U 08021J   25194.89159750  .00009692  00000-0  46147-3 0  9999
2 32791  97.7291 175.7163 0005376  66.8046 293.3754 15.19354517935786
RS-30
1 32953U 08025A   25194.84698624  .00000009  00000-0 -43650-5 0  9998
2 32953  82.5009 205.8677 0018627 334.6935  25.3231 12.43166229777799
NOAA-19
1 33591U 09005A   25194.82086739  .00000155  00000-0  10688-3 0  9996
2 33591  98.9959 259.7153 0012666 266.5195  93.4528 14.13388731846940
SRMSAT
1 37841U 11058D   25194.61217568  .00000362  00000-0  52914-4 0  9991
2 37841  19.9730 308.6082 0011872  79.0011  35.9694 14.11444069709925
ZACUBE-1
1 39417U 13066B   25194.41275980  .00003460  00000-0  30127-3 0  9996
2 39417  97.7809 151.2549 0042433 299.9456  59.7555 14.96911565629979
Delfi-N3xt
1 39428U 13066N   25194.50703689  .00004301  00000-0  43804-3 0  9991
2 39428  97.8330 111.7857 0082566 248.4741 110.7659 14.88729082624128
GOMX-1
1 39430U 13066Q   25194.84669062  .00001458  00000-0  23112-3 0  9997
2 39430  97.6805  51.4034 0133811  82.8232 278.8165 14.67750695620437
LO-74
1 39440U 13066AA  25194.59061034  .00003535  00000-0  35775-3 0  9991
2 39440  97.8505 138.9205 0063428  68.4472 292.3490 14.90119324626500
AO-73
1 39444U 13066AE  25194.84376101  .00005651  00000-0  42044-3 0  9995
2 39444  97.7837 156.8972 0040741 270.6272  89.0285 15.02710390629329
DTUSAT-2
1 40030U 14033W   25194.45348843  .00004993  00000-0  32340-3 0  9998
2 40030  98.0573 167.9220 0007605 313.9645  46.0954 15.08618607601509
EO-80
1 40032U 14033Y   25194.47194604  .00005537  00000-0  35741-3 0  9999
2 40032  98.0451 167.5492 0007066 240.5495 119.5028 15.08693910601487
LILACSAT-2
1 40908U 15049K   25194.86924794  .00009264  00000-0  23730-3 0  9999
2 40908  97.5042 216.0562 0010137  47.6359 312.5743 15.39566791543502
IO-86
1 40931U 15052B   25151.18580175  .00001241  00000-0  78118-4 0  9996
2 40931   6.0006  24.0987 0012733 338.8432  21.1169 14.78805930523047
Horyu-4
1 41340U 16012D   25194.55915924  .00018768  00000-0  48102-3 0  9991
2 41340  30.9960 263.2182 0006473  60.5433 299.5858 15.38092673518022
Lapan A3
1 41603U 16040E   25194.83754158  .00002527  00000-0  89213-4 0  9990
2 41603  97.1371 198.1050 0012179 139.8371 220.3773 15.30047297503022
CAS-2T
1 41847U 16066G   25194.43908831  .00001050  00000-0  15655-3 0  9991
2 41847  98.4193 268.6035 0346910  76.1544 287.7985 14.43582284455900
CAS-4B
1 42759U 17034B   25194.85807016  .00064686  00000-0  57143-3 0  9991
2 42759  43.0054 116.9396 0020349 175.5560 184.5490 15.67518034447979
CAS-4A
1 42761U 17034D   25194.86028987  .00068422  00000-0  56490-3 0  9993
2 42761  43.0092 113.6647 0021546 180.3010 179.7847 15.69106253448006
TechnoSat
1 42829U 17042E   25194.82480600  .00002733  00000-0  21308-3 0  9990
2 42829  97.3863   1.8898 0016918 160.1246 200.0642 15.01854821435867
AO-91
1 43017U 17073E   25194.43623430  .00008206  00000-0  41397-3 0  9992
2 43017  97.5208  64.3508 0172828  51.6987 309.9639 15.05210398414303
S-Net D
1 43186U 18014G   25194.44982879  .00003281  00000-0  19424-3 0  9995
2 43186  97.5593  97.0117 0010796 105.7957 254.4464 15.12078016407498
S-Net B
1 43187U 18014H   25194.58802957  .00003421  00000-0  20244-3 0  9997
2 43187  97.5599  97.1219 0011510 101.5874 258.6649 15.12059083407513
S-Net A
1 43188U 18014J   25194.78098220  .00003310  00000-0  19586-3 0  9994
2 43188  97.5606  97.4674 0011460 101.6273 258.6245 15.12085668407542
S-Net C
1 43189U 18014K   25194.59052382  .00003519  00000-0  20808-3 0  9993
2 43189  97.5623  97.2988 0012930  96.1252 264.1452 15.12055028406061
Ten-Koh
1 43677U 18084G   25194.46902376  .00001497  00000-0  12327-3 0  9995
2 43677  98.0847   8.0656 0008476 141.9247 218.2576 15.00695102365322
PO-101
1 43678U 18084H   25194.84643316  .00002178  00000-0  18756-3 0  9993
2 43678  98.1060  12.2815 0008915 159.1363 201.0224 14.98455598365513
QO-100
1 43700U 18090A   25194.56495567  .00000152  00000-0  00000-0 0  9998
2 43700   0.0234  56.6598 0002566  95.6316   8.5645  1.00269593 24282
MinXSS-2
1 43758U 18099A   25194.16226550  .00012319  00000-0  47250-3 0  9999
2 43758  97.4999 260.3227 0012158  45.2721 314.9505 15.26568909362094
AO-95
1 43770U 18099N   25194.60813502  .00006911  00000-0  34528-3 0  9996
2 43770  97.4892 252.3247 0012224  95.5065 264.7563 15.17720478361711
RANGE-A
1 43773U 18099R   25194.54697349  .00003978  00000-0  25273-3 0  9998
2 43773  97.4460 241.9650 0012781  78.2874 281.9788 15.09337242361344
MOVE-II
1 43780U 18099Y   25194.49659552  .08906563  25462-5  14467-2 0  9990
2 43780  97.4554 273.5220 0016796 270.3011  89.6359 16.33143321363191
SNUSat 2
1 43782U 18099AA  25194.62551985  .00005773  00000-0  31196-3 0  9998
2 43782  97.4573 248.8140 0012752  43.2063 317.0168 15.15011895361656
SnugLite
1 43784U 18099AC  25194.56490979  .00007788  00000-0  38546-3 0  9992
2 43784  97.4384 248.3853 0004470  57.4533 302.7132 15.18059291361793
ITASat 1
1 43786U 18099AE  25194.86787773  .00004265  00000-0  24265-3 0  9998
2 43786  97.4542 248.4597 0015965  89.3492 270.9569 15.13274936361640
EAGLET 1
1 43790U 18099AJ  25194.56409926  .00003686  00000-0  23484-3 0  9999
2 43790  97.4738 248.0051 0013480  76.0059 284.2668 15.09282597361190
ESEO
1 43792U 18099AL  25194.56251698  .00000754  00000-0  60741-4 0  9993
2 43792  97.4430 240.8109 0013643  49.5015 310.7397 15.02701774360923
CSIM
1 43793U 18099AM  25194.47176438  .00107595  00000-0  47461-3 0  9996
2 43793  97.4764 275.2073 0001644 155.9217 204.2130 15.84208343362995
JO-97
1 43803U 18099AX  25194.46205099  .00009304  00000-0  41676-3 0  9994
2 43803  97.4639 253.2461 0007892  38.9339 321.2464 15.21445800361925
Suomi 100
1 43804U 18099AY  25194.59793091  .00007259  00000-0  35029-3 0  9995
2 43804  97.4704 252.5783 0012828  37.0111 323.2006 15.18906423361867
ISAT
1 43879U 18111D   25194.55940455  .00016648  00000-0  55807-3 0  9994
2 43879  97.5933 109.7249 0010746  82.2241 278.0219 15.30935758358896
UWE-4
1 43880U 18111E   25194.50046790  .00013067  00000-0  49915-3 0  9995
2 43880  97.5878 107.9004 0013869  92.0344 268.2482 15.26672352358804
Sparrow
1 43881U 18111F   25194.51326154  .00017933  00000-0  57741-3 0  9994
2 43881  97.6083 112.6897 0008979 112.9878 247.2311 15.32234572358989
Prox-1
1 44339U 19036A   25194.39147582  .00007606  00000-0  93795-3 0  9997
2 44339  23.9953 199.6022 0007863  99.7020 260.4366 14.80478657323034
SONATE
1 44400U 19038Q   25185.47540524  .09032085  27445-5  31847-3 0  9995
2 44400  97.6609 216.4776 0012462 246.7970 113.2018 16.43248376333575
Taurus 1
1 44530U 19059C   25194.85267419  .00004162  00000-0  76615-3 0  9994
2 44530  98.6108 335.8855 0007933 288.5065  71.5274 14.66151575308966
Duchifat 3
1 44854U 19089C   25194.87685529  .00040370  00000-0  72140-3 0  9994
2 44854  36.9416 136.7066 0006837 249.0448 110.9578 15.49043774308264
TO-108
1 44881U 19093C   25194.84255184  .00000628  00000-0  78480-4 0  9992
2 44881  97.7917 269.7755 0015136 116.7931 243.4835 14.85655840301168
